Weather History for Windsor, ON

Change the Weather History Date:

Thursday, October 18, 2012

  Actual Average Record
Temperature  
Mean Temperature 58 °F -  
Max Temperature 62 °F 52 °F 73 °F (2007)
Min Temperature 51 °F 37 °F 33 °F (2001)
Degree Days  
Heating Degree Days 8    
Growing Degree Days 8 (Base 50)    
Moisture  
Dew Point 46 °F    
Average Humidity 65    
Maximum Humidity 94    
Minimum Humidity 39    
Precipitation  
Precipitation 0.08 in 0.09 in - ()
Sea Level Pressure  
Sea Level Pressure 29.55 in    
Wind  
Wind Speed 11 mph ()    
Max Wind Speed 24 mph    
Max Gust Speed 31 mph    
Visibility 14.0 miles    
Events Rain , Thunderstorm    
Averages and records for this station are not official NWS values.
T = Trace of Precipitation, MM = Missing Value Source: Averaged Metar Reports

Daily Weather History Graph

Daily Weather History Graph

Search for Another Location

Airport:

Trip Planner

Search our weather history database for the weather conditions in past years. The results will help you decide how hot, cold, wet, or windy it might be!

Date:

Astronomy

Oct. 18, 2012 Rise Set
Actual Time 7:48 AM EDT 6:44 PM EDT
Civil Twilight 7:20 AM EDT 7:12 PM EDT
Nautical Twilight 6:47 AM EDT 7:45 PM EDT
Astronomical Twilight 6:15 AM EDT 8:17 PM EDT
Moon 11:33 AM EDT (10/18) 9:13 PM EDT (10/18)
Length of Visible Light 11h 52m
Length of Day
10h 55m
Waxing Crescent, 14% of the Moon is Illuminated
Oct 18
Waxing Crescent
Oct 21
First Quarter
Oct 29
Full
Nov 6
Last Quarter
Nov 13
New

Hourly Weather History & Observations

Time (EDT) Temp. Dew Point Humidity Pressure Visibility Wind Dir Wind Speed Gust Speed Precip Events Conditions
12:00 AM 57.2 °F 55.4 °F 94% 29.60 in 12.0 mi East 6.9 mph 21.9 mph N/A Rain Light Rain Showers
1:00 AM 59.0 °F 55.4 °F 88% 29.58 in 12.0 mi ESE 6.9 mph - N/A   Overcast
2:00 AM 62 °F 54 °F 69% 29.54 in 12 mi SE 15.0 mph - - Rain Light Rain Showers
2:00 AM 62.6 °F 53.6 °F 72% 29.54 in 12.0 mi SE 16.1 mph - N/A Rain Light Rain Showers
2:28 AM - - N/A% - 12.0 mi South 9.2 mph - N/A Thunderstorm Thunderstorm
2:54 AM - - N/A% - 12.0 mi South 5.8 mph - N/A   Overcast
3:00 AM 62.6 °F 53.6 °F 72% 29.55 in 12.0 mi South 5.8 mph - N/A   Overcast
3:56 AM - - N/A% - 15.0 mi SE 10.4 mph - N/A   Partly Cloudy
4:00 AM 60.8 °F 53.6 °F 77% 29.51 in 15.0 mi SE 10.4 mph - N/A   Partly Cloudy
5:00 AM 59.0 °F 51.8 °F 77% 29.48 in 15.0 mi SSE 3.5 mph - N/A   Overcast
6:00 AM 59.0 °F 50.0 °F 72% 29.46 in 15.0 mi SSE 15.0 mph - N/A   Overcast
7:00 AM 60.8 °F 48.2 °F 63% 29.44 in 15.0 mi SSE 15.0 mph 20.7 mph N/A   Overcast
8:00 AM 61 °F 48 °F 52% 29.43 in 15 mi SSE 19.6 mph - -   Partly Cloudy
8:00 AM 60.8 °F 48.2 °F 63% 29.43 in 15.0 mi South 19.6 mph 25.3 mph N/A   Overcast
8:45 AM - - N/A% - 15.0 mi South 20.7 mph 31.1 mph N/A Rain Light Rain Showers
9:00 AM 60.8 °F 48.2 °F 63% 29.44 in 15.0 mi South 20.7 mph 29.9 mph N/A Rain Light Rain Showers
10:00 AM 55.4 °F 53.6 °F 94% 29.45 in 10.0 mi South 16.1 mph 21.9 mph N/A Rain Light Rain Showers
11:00 AM 53.6 °F 50.0 °F 88% 29.50 in 12.0 mi SW 13.8 mph 19.6 mph N/A Rain Light Rain Showers
11:53 AM - - N/A% - 12.0 mi SSW 10.4 mph 17.3 mph N/A   Overcast
12:00 PM 53.6 °F 48.2 °F 82% 29.53 in 15.0 mi SW 16.1 mph - N/A   Mostly Cloudy
1:00 PM 55.4 °F 46.4 °F 72% 29.54 in 15.0 mi SW 23.0 mph 28.8 mph N/A   Mostly Cloudy
2:00 PM 57 °F 43 °F 50% 29.57 in 15 mi WSW 18.4 mph - -   Partly Cloudy
2:00 PM 57.2 °F 42.8 °F 59% 29.57 in 15.0 mi SW 19.6 mph - N/A   Mostly Cloudy
3:00 PM 59.0 °F 39.2 °F 48% 29.58 in 15.0 mi SW 24.2 mph 29.9 mph N/A   Mostly Cloudy
4:00 PM 60.8 °F 35.6 °F 39% 29.59 in 15.0 mi SW 15.0 mph 29.9 mph N/A   Partly Cloudy
5:00 PM 59.0 °F 37.4 °F 45% 29.60 in 15.0 mi SSW 16.1 mph - N/A   Partly Cloudy
6:00 PM 59.0 °F 37.4 °F 45% 29.62 in 15.0 mi South 10.4 mph - N/A   Partly Cloudy
7:00 PM 57.2 °F 39.2 °F 51% 29.64 in 15.0 mi SSW 8.1 mph - N/A   Mostly Cloudy
8:00 PM 55.4 °F 37.4 °F 51% 29.66 in 15.0 mi SSW 9.2 mph - N/A   Mostly Cloudy
9:00 PM 53.6 °F 39.2 °F 58% 29.67 in 15.0 mi South 6.9 mph - N/A   Mostly Cloudy
10:00 PM 53.6 °F 37.4 °F 54% 29.69 in 15.0 mi South 8.1 mph - N/A   Mostly Cloudy
11:00 PM 51.8 °F 39.2 °F 62% 29.70 in 15.0 mi South 6.9 mph - N/A   Partly Cloudy